Location: Azul
(36.7830°S, 59.8500°W)
Time: 16:56:53
(UTC-03:00)

BUGSAT 1 - Pass Details

Date: 27 October 2021
Orbit: 558 x 600 km, 98.1° (Epoch: 06 December)

Event Time Altitude Azimuth Distance (km) Brightness Sun altitude
Rises 04:23:02 0° 39° (NE) 2,809 ? -18.4°
Reaches altitude 10° 04:25:22 10° 50° (NE) 1,924 ? -18.0°
Maximum altitude 04:28:59 29° 110° (ESE) 1,112 ? -17.4°
Drops below altitude 10° 04:32:40 10° 170° (S) 1,966 ? -16.7°
Sets 04:35:04 0° 180° (S) 2,882 ? -16.3°
